Location: Bennwihr
(48.1445°N, 7.3231°E)
Time: 11:14:13
(UTC+00:00)

Daily predictions for brighter satellites

Satellite Brightness Start Highest point End
(mag) Time Altitude Azimuth Time Altitude Azimuth Time Altitude Azimuth
Lacrosse 5 rocket 2.5 16:07:56 10° NW 16:11:06 24° N 16:14:23 10° ENE
Cosmos 1743 Rocket 3.9 16:07:13 10° N 16:11:22 42° ENE 16:15:29 10° SSE
Okean O Rocket 3.3 16:13:21 10° E 16:15:36 14° ENE 16:17:53 10° NNE
USA 267 3.4 16:14:29 10° ENE 16:21:02 68° SE 16:27:32 10° SW
Cosmos 2360 Rocket 4.1 16:22:19 10° NNE 16:22:59 10° NNE 16:23:39 10° NNE
H-2A R/B 2.8 16:19:53 10° ESE 16:24:17 30° ENE 16:28:36 10° N
SJ 16-02 3.7 16:21:11 10° NW 16:24:58 29° W 16:28:44 10° SSW
Cosmos 1763 Rocket 3.6 16:22:33 10° S 16:27:30 59° ESE 16:32:32 10° NNE
CZ-4B R/B 2.8 16:24:28 10° SSE 16:28:30 86° E 16:32:22 10° NNW
USA 276 3.8 16:26:02 10° W 16:28:54 34° SSW 16:31:45 10° SE
USA 305 3.7 16:25:07 10° WNW 16:29:05 38° N 16:32:46 12° ENE
Cosmos 1656 4.2 16:25:16 10° NNW 16:30:46 64° WSW 16:36:18 10° SSE
Cosmos 1933 3.8 16:29:50 10° SSE 16:33:38 41° E 16:37:27 10° NNE
Cosmos 841 Rocket 4.3 16:29:35 10° SSE 16:34:04 31° E 16:38:33 10° NE
PSLV R/B 4.3 16:31:24 10° SE 16:34:44 33° ENE 16:38:08 10° N
Cosmos 1464 Rocket 4.3 16:29:18 10° SSW 16:35:41 74° W 16:42:05 10° N
USA 229 DEB 4.0 16:28:24 10° NW 16:35:44 88° SW 16:43:33 10° SE
USA 229 4.0 16:28:29 10° NW 16:35:50 88° SW 16:43:39 10° SE
Cosmos 1937 Rocket 3.6 16:31:51 10° NNW 16:37:09 61° ENE 16:42:24 10° SE
Spot 1 4.4 16:35:07 10° NNE 16:39:50 85° WNW 16:44:47 10° SSW
Cosmos 1500 Rocket 3.6 16:35:27 10° N 16:39:56 88° ENE 16:44:20 10° S
Cosmos 1666 3.9 16:37:22 10° NNE 16:40:09 20° ENE 16:42:55 10° ESE
Nadezhda 4 Rocket 4.2 16:35:24 10° NNW 16:41:44 78° W 16:48:03 10° S
SeaSat 1 4.3 16:38:06 10° N 16:41:58 23° NW 16:45:50 10° W
SL-24 R/B - RUBIN 2 3.7 16:38:09 10° NNW 16:42:39 50° NE 16:46:53 10° ESE
Cosmos 2322 Rocket 3.7 16:40:09 10° N 16:43:47 17° NE 16:45:58 14° ENE
ATLAS 2AS CENTAUR R/B 4.2 16:37:37 10° WNW 16:43:56 26° NNW 16:50:01 10° NE
Cosmos 990 Rocket 4.4 16:38:53 10° NNW 16:44:04 68° WSW 16:49:10 10° S
FengYun 1-2 T 4.3 16:40:34 10° SSE 16:46:10 86° WSW 16:51:45 10° NNW
Cosmos 1697 Rocket 2.7 16:40:49 10° NNW 16:46:29 89° ENE 16:52:06 10° SSE
Cosmos 372 Rocket 4.2 16:43:14 10° NNW 16:48:21 50° ENE 16:53:26 10° SE
NOAA 6 4.0 16:44:24 10° SSE 16:49:33 84° ENE 16:54:43 10° NNW
Sich 1 3.1 16:45:27 10° N 16:49:40 53° ENE 16:53:53 10° SSE
Cosmos 1980 Rocket 2.3 16:45:11 10° NNW 16:50:47 55° ENE 16:56:18 10° SE
Cosmos 1805 Rocket 3.4 16:47:20 10° N 16:51:41 71° E 16:56:00 10° SSE
Cosmos 2221 3.7 16:47:53 10° SSW 16:51:57 43° WNW 16:56:06 10° N
Cosmos 2369 3.7 16:47:00 10° NNW 16:52:44 70° ENE 16:58:26 10° SE
USA 234 3.4 16:48:48 10° SE 16:55:22 83° SW 17:01:57 10° NW
CZ-4C R/B 3.0 16:50:17 10° NW 16:57:10 58° NE 17:05:18 10° ESE
Cosmos 1092 Rocket 4.0 16:51:17 10° N 16:57:41 85° E 17:04:01 10° S
Cosmos 1428 Rocket 4.4 16:54:15 10° N 17:00:25 78° E 17:06:34 10° SSE
Cosmos 1812 3.5 16:57:15 10° SSE 17:00:40 31° E 17:02:43 19° NE
USA 306 3.7 16:57:23 10° WNW 17:01:21 36° N 17:03:35 21° NE
SL-16 R/B 3.2 16:57:20 10° N 17:01:58 25° NE 17:04:16 19° ENE
ISS -3.8 16:59:22 10° WNW 17:02:47 85° NNE 17:04:59 20° ESE
Meteor 1-25 Rocket 4.4 16:57:48 10° NNW 17:03:23 76° W 17:08:58 10° S
MOS 1-B Rocket 4.3 16:59:00 10° NNE 17:04:44 50° E 17:11:11 10° S
NOSS 2-2 (D) 4.2 16:59:48 10° NW 17:04:52 79° NE 17:12:01 10° SE
deb Chang Zheng 4 3.9 17:00:59 10° SE 17:05:01 40° ENE 17:09:04 10° N
NOSS 2-2 (E) 4.4 16:59:58 10° NW 17:05:13 89° SW 17:12:39 10° SE
SMAP 3.4 17:00:57 10° S 17:05:35 69° WSW 17:10:15 10° NNW
Cosmos 2082 Rocket 2.5 17:01:05 10° S 17:06:31 49° ESE 17:10:43 17° NE
Cosmos 1939 Rocket 3.6 17:02:48 10° S 17:06:51 57° W 17:10:53 10° NNW
CORIOLIS 4.3 17:03:07 10° S 17:08:32 78° WSW 17:13:59 10° NNW
Cosmos 44 Rocket 3.8 17:07:29 10° NNW 17:12:07 37° NE 17:14:23 24° E
Cosmos 2333 Rocket 4.1 17:09:52 10° N 17:12:12 12° NNE 17:12:25 12° NNE
Meteor 2-16 Rocket 4.5 17:08:13 10° N 17:14:15 57° ENE 17:20:16 10° SSE
CZ-4B DEB 4.3 17:09:22 10° SSE 17:14:54 80° WSW 17:20:26 10° NNW
Cosmos 2278 3.7 17:11:07 10° NNW 17:16:49 62° ENE 17:22:26 10° SE
Cosmos 1602 4.3 17:13:03 10° NNW 17:16:52 58° W 17:20:39 10° S
USA 307 3.7 17:16:11 10° WNW 17:20:12 37° N 17:21:38 29° NE
Cosmos 540 Rocket 3.4 17:16:22 10° SSW 17:21:28 84° WNW 17:26:07 13° NNE
ARGOS 3.1 17:19:45 10° SSE 17:25:03 59° ENE 17:30:22 10° N
COSMO-SKYMED 1 2.7 17:23:24 23° NE 17:25:49 49° E 17:30:01 10° S
Cosmos 1570 Rocket 4.3 17:21:13 10° S 17:26:11 46° ESE 17:28:35 27° NE
Cosmos 2279 Rocket 3.9 17:20:12 10° S 17:26:18 62° E 17:32:24 10° NNE
Cosmos 2298 Rocket 4.5 17:21:45 10° N 17:26:43 38° ENE 17:28:50 27° ESE
COSMOS 2406 3.3 17:21:29 10° SSW 17:27:14 77° WNW 17:32:10 15° NNE
Cosmos 1833 Rocket 3.1 17:23:02 10° SW 17:28:36 60° WNW 17:33:42 13° NNE
Cosmos 2266 Rocket 4.3 17:23:32 10° N 17:29:34 42° ENE 17:35:37 10° SE
Cosmos 1782 3.0 17:25:45 10° SSW 17:29:44 71° W 17:33:44 10° N
Cosmos 1814 Rocket 4.0 17:25:54 10° S 17:31:00 58° ESE 17:33:44 27° NE
ATLAS 5 CENTAUR R/B 2.3 17:24:57 10° NW 17:32:26 46° NNE 17:33:08 40° ENE
Cosmos 921 Rocket 4.4 17:30:42 10° SSE 17:32:43 22° SE 17:32:43 22° SE
Cosmos 1633 Rocket 2.9 17:30:29 10° N 17:34:52 72° E 17:39:14 10° SSE
ATLAS CENTAUR R/B 4.0 17:34:13 10° NW 17:35:59 12° NNW 17:37:48 10° N
Cosmos 1818 3.6 17:30:49 10° NNW 17:36:15 57° NE 17:38:50 30° ESE
Cosmos 2219 Rocket 4.1 17:34:43 10° N 17:36:27 13° NNE 17:36:27 13° NNE
YAOGAN 1 4.0 17:39:35 23° NNE 17:39:35 23° NNE 17:41:30 10° N
GEOS 3 Rocket 3.8 17:37:58 34° E 17:39:52 51° NE 17:44:53 10° NNW
CZ-2D R/B 4.2 17:36:37 10° S 17:40:20 49° W 17:44:05 10° NNW
Meteor 2-6 Rocket 4.2 17:35:34 10° S 17:41:12 58° E 17:45:14 19° NNE
ERBS 4.3 17:39:03 10° NW 17:41:01 17° N 17:41:01 17° N
USA 308 3.5 17:38:48 10° WNW 17:42:50 39° N 17:43:13 38° NNE
SJ-11-01 4.2 17:38:15 10° SSE 17:43:00 82° ENE 17:47:46 10° NNW
Cosmos 1634 Rocket 4.3 17:37:02 10° SSW 17:43:19 68° W 17:49:40 10° N
COSMOS 2455 2.8 17:38:32 10° SW 17:44:34 84° NW 17:48:14 25° NNE
CZ-2C R/B 2.4 17:40:35 13° NNE 17:45:15 76° ESE 17:50:24 10° S
CZ-4B R/B 3.2 17:41:50 10° SSE 17:47:15 78° WSW 17:52:38 10° NNW
Cosmos 1151 Rocket 3.0 17:44:25 10° S 17:48:44 85° W 17:51:27 23° N
SKYMED 3 4.4 17:47:47 29° NNE 17:49:59 86° ESE 17:54:20 10° SSW
Lacrosse 5 rocket 1.4 17:46:54 10° NW 17:50:36 57° NNE 17:50:36 57° NNE
Okean O Rocket 1.6 17:46:52 10° SSE 17:51:20 85° WSW 17:55:49 10° NNW
CZ-4 R/B 3.9 17:59:39 11° N 17:59:39 11° N 17:59:45 10° N
Meteor 2-15 4.3 17:52:34 10° S 17:58:37 67° E 18:03:29 16° NNE
Cosmos 2208 Rocket 3.9 17:54:48 10° SSW 18:00:10 72° ESE 18:01:39 48° NE
Cosmos 1666 Rocket 4.4 17:56:18 10° NNW 18:00:39 52° W 18:04:55 10° S
Meteor 1-11 Rocket 3.6 17:57:18 10° N 18:02:52 61° ENE 18:05:45 29° SE
Meteor 1-10 Rocket 4.1 17:57:22 10° S 18:03:05 64° E 18:04:52 42° NE
H-2A R/B 3.2 17:58:40 10° S 18:03:34 42° W 18:08:22 10° NNW
Cosmos 1470 Rocket 3.4 17:59:28 10° N 18:03:57 84° E 18:08:25 10° S
USA 267 3.6 18:01:03 32° NE 18:03:59 56° NNW 18:10:20 10° W
Cosmos 2150 Rocket 3.8 17:59:06 10° NNW 18:04:16 67° ENE 18:04:48 62° E
Cosmos 1655 Rocket 3.9 17:59:36 10° N 18:06:03 78° E 18:12:25 10° SSE
Cosmos 1328 Rocket 3.6 18:01:50 10° SSW 18:06:16 79° W 18:07:30 47° N
Landsat 5 3.4 18:08:41 74° SSW 18:08:41 74° SSW 18:12:21 10° SSW
Cosmos 2360 Rocket 3.3 18:03:46 10° NNW 18:07:10 28° NNE 18:07:10 28° NNE
USA 305 3.7 18:05:26 10° WNW 18:08:46 42° NNW 18:08:46 42° NNW
SKYMED 2 4.2 18:12:00 30° N 18:13:54 55° WNW 18:18:08 10° SSW
Cosmos 1666 4.3 18:12:24 10° NNW 18:15:46 33° W 18:19:07 10° SSW
Feng Yun 1-1 Rocket 4.4 18:10:44 10° SSE 18:16:41 83° WSW 18:22:35 10° NNW
ATLAS CENTAUR R/B 2.9 18:13:18 10° WSW 18:20:21 44° NNW 18:20:43 43° NNW
Cosmos 1125 Rocket 3.4 18:17:06 10° NNW 18:22:14 83° NNE 18:22:14 83° NNE
Cosmos 2322 Rocket 2.5 18:23:16 10° NNW 18:27:49 53° N 18:27:49 53° N
Cosmos 1980 Rocket 4.2 18:29:46 10° NW 18:34:26 27° WSW 18:39:05 10° SSW
ATLAS 2AS CENTAUR R/B 4.0 18:31:13 10° NW 18:37:24 26° NNE 18:37:27 26° NNE
ISS -0.8 18:36:37 10° W 18:37:58 17° WSW 18:37:58 17° WSW
CZ-4C R/B 3.9 18:38:53 10° NW 18:45:52 47° WSW 18:53:52 10° S
SL-16 R/B 2.4 18:40:58 10° NNW 18:46:11 69° WNW 18:46:11 69° WNW
Cosmos 2082 Rocket 3.6 18:45:41 10° WSW 18:50:47 34° NW 18:52:35 28° NNW
Cosmos 44 Rocket 4.5 18:49:06 10° NW 18:53:09 39° W 18:53:09 39° W
Cosmos 2333 Rocket 4.1 18:52:41 10° NNW 18:54:27 19° N 18:54:27 19° N
